SCP
-0 -0 -0 -0 0 0 0 0 0 0 0 0 0 0 0 0 0 0 0 0 0 0
-0 -0 0 0 0 0 0 0 0 0 0 0 0 0 0 0 0 0 0 0 0 0
-0 0 0 0 0 0 0 0 0 0 0 0 0 0 0 0 0 0 0 0 0 0
-0 -0 -0 0 0 0 0 0 0 0 0 0 0 0 0 0 0 0 0 0 0 0
-0 -0 -0 0 0 0 0 0 0 0 0 0 0 0 0 0 0 0 0 0 0 0
-0 -0 0 0 0 0 0 0 0 0 0 0 0 0 0 0 0 0 0 0 0 0
0 0 0 0 0 0 0 0 0 0 0 0 0 0 0 0 0 0 0 0 0 0
0 0 0 0 0 0 0 0 0 0 0 0 0 0 0 0 0 0 0 0 0 0
0 0 0 0 0 0 0 0 0 0 0 0 0 0 0 0 0 0 0 0 0 0
0 0 0 0 0 0 0 0 0 0 0 0 0 0 0 0 0 0 0 0 0 0
0 0 0 0 0 0 0 0 0 0 0 0 0 0 0 0 0 0 0 0 0 0
0 0 0 0 0 0 0 0 0 0 0 0 0 0 0 0 0 0 0 0 0 0
0 0 0 0 0 0 0 0 0 0 0 0 0 0 0 0 0 0 0 0 0 0
0 0 0 0 0 0 0 0 0 0 0 0 0 0 0 0 0 0 0 0 0 0
Wind_Speed_500mb
40 31 28 26 21 25 23 18 19 19 19 20 21 21 20 19 16 12 9 8 10 12
48 36 30 29 27 25 23 24 23 22 20 20 21 20 15 10 6 4 5 7 10 12
46 40 30 29 26 25 26 24 21 20 20 20 16 10 5 2 0 3 8 11 13 13
44 38 34 30 29 26 24 21 19 19 18 14 8 2 2 2 1 4 7 9 11 12
40 35 32 30 29 26 22 18 16 13 11 6 5 6 5 2 1 4 7 10 13 15
38 34 32 32 27 23 17 15 12 9 8 10 11 9 8 7 9 11 12 14 14 15
32 29 32 29 24 19 16 13 11 12 15 15 14 14 16 17 16 13 12 12 14 17
31 29 29 28 21 17 15 13 15 17 20 20 19 18 16 15 14 13 13 14 17 19
37 37 35 30 24 17 17 18 19 22 24 22 21 21 16 10 10 12 13 14 16 18
45 41 37 32 23 19 20 21 24 25 26 25 22 18 16 11 7 7 10 11 12 12
49 45 39 31 24 23 24 26 26 28 28 25 19 15 15 15 11 9 5 5 6 4
52 44 39 34 29 29 31 31 31 31 29 26 22 15 10 11 14 13 11 6 2 1
53 46 37 30 32 32 35 34 36 35 33 29 23 17 13 13 12 11 10 7 7 6
51 43 32 29 34 36 41 43 42 39 34 29 23 18 12 8 8 8 5 4 5 6
Wind_Direction_500mb
220 225 226 229 240 250 247 255 274 279 284 291 292 297 303 303 301 304 304 298 296 297
221 228 235 231 243 240 247 262 262 267 278 291 299 300 299 302 321 348 348 337 331 327
217 226 231 231 236 235 248 248 259 275 288 299 305 302 303 313 322 354 339 343 348 352
214 220 225 224 232 236 241 244 260 280 296 305 300 274 131 142 103 342 346 355 7 14
208 211 228 227 224 228 232 246 262 279 278 250 176 141 117 120 335 5 39 51 42 38
201 208 217 227 224 220 223 244 257 239 203 178 154 133 134 130 107 84 68 60 56 56
198 212 222 213 204 215 230 231 214 188 174 163 147 131 125 115 98 78 69 68 66 67
203 218 203 199 206 220 226 209 186 168 164 159 149 138 123 112 102 88 85 79 74 69
199 196 195 202 203 208 211 193 178 170 164 160 159 152 145 135 109 92 89 84 74 67
183 191 196 203 202 204 187 185 178 171 164 160 163 169 168 169 149 113 96 87 74 67
185 182 191 200 201 190 179 179 180 172 168 162 170 173 184 190 194 199 162 104 61 69
186 187 190 197 195 186 183 183 182 175 168 159 155 146 152 174 194 207 219 226 321 341
191 188 188 194 193 189 187 184 181 173 169 164 159 144 139 133 150 179 206 236 266 283
197 193 183 192 194 189 186 187 185 181 181 182 181 182 179 165 150 175 163 212 275 276
Wind_Speed_850mb
40 31 28 26 21 25 23 18 19 19 19 20 21 21 20 19 16 12 9 8 10 12
48 36 30 29 27 25 23 24 23 22 20 20 21 20 15 10 6 4 5 7 10 12
46 40 30 29 26 25 26 24 21 20 20 20 16 10 5 2 0 3 8 11 13 13
44 38 34 30 29 26 24 21 19 19 18 14 8 2 2 2 1 4 7 9 11 12
40 35 32 30 29 26 22 18 16 13 11 6 5 6 5 2 1 4 7 10 13 15
38 34 32 32 27 23 17 15 12 9 8 10 11 9 8 7 9 11 12 14 14 15
32 29 32 29 24 19 16 13 11 12 15 15 14 14 16 17 16 13 12 12 14 17
31 29 29 28 21 17 15 13 15 17 20 20 19 18 16 15 14 13 13 14 17 19
37 37 35 30 24 17 17 18 19 22 24 22 21 21 16 10 10 12 13 14 16 18
45 41 37 32 23 19 20 21 24 25 26 25 22 18 16 11 7 7 10 11 12 12
49 45 39 31 24 23 24 26 26 28 28 25 19 15 15 15 11 9 5 5 6 4
52 44 39 34 29 29 31 31 31 31 29 26 22 15 10 11 14 13 11 6 2 1
53 46 37 30 32 32 35 34 36 35 33 29 23 17 13 13 12 11 10 7 7 6
51 43 32 29 34 36 41 43 42 39 34 29 23 18 12 8 8 8 5 4 5 6
Wind_Direction_850mb
220 225 226 229 240 250 247 255 274 279 284 291 292 297 303 303 301 304 304 298 296 297
221 228 235 231 243 240 247 262 262 267 278 291 299 300 299 302 321 348 348 337 331 327
217 226 231 231 236 235 248 248 259 275 288 299 305 302 303 313 322 354 339 343 348 352
214 220 225 224 232 236 241 244 260 280 296 305 300 274 131 142 103 342 346 355 7 14
208 211 228 227 224 228 232 246 262 279 278 250 176 141 117 120 335 5 39 51 42 38
201 208 217 227 224 220 223 244 257 239 203 178 154 133 134 130 107 84 68 60 56 56
198 212 222 213 204 215 230 231 214 188 174 163 147 131 125 115 98 78 69 68 66 67
203 218 203 199 206 220 226 209 186 168 164 159 149 138 123 112 102 88 85 79 74 69
199 196 195 202 203 208 211 193 178 170 164 160 159 152 145 135 109 92 89 84 74 67
183 191 196 203 202 204 187 185 178 171 164 160 163 169 168 169 149 113 96 87 74 67
185 182 191 200 201 190 179 179 180 172 168 162 170 173 184 190 194 199 162 104 61 69
186 187 190 197 195 186 183 183 182 175 168 159 155 146 152 174 194 207 219 226 321 341
191 188 188 194 193 189 187 184 181 173 169 164 159 144 139 133 150 179 206 236 266 283
197 193 183 192 194 189 186 187 185 181 181 182 181 182 179 165 150 175 163 212 275 276